Time,TemperatureF,DewpointF,PressureIn,WindDirection,WindDirectionDegrees,WindSpeedMPH,WindSpeedGustMPH,Humidity,HourlyPrecipIn,Conditions,Clouds,dailyrainin,SolarRadiationWatts/m^2,SoftwareType,DateUTC
2013-10-03 00:04:00,56.0,54.3,29.78,NNW,328,1.2,1.2,94,0.02,-RA,OVC,0.01,0.0,WeatherDisplay:10.37,2013-10-02 23:04:00,
2013-10-03 00:09:00,56.0,54.3,29.78,West,278,2.3,2.3,94,0.03,-RA,OVC,0.02,0.0,WeatherDisplay:10.37,2013-10-02 23:09:00,
2013-10-03 00:14:00,56.1,54.4,29.78,SSE,158,1.2,1.2,94,0.06,-RA,OVC,0.05,0.0,WeatherDisplay:10.37,2013-10-02 23:14:00,
2013-10-03 00:19:00,56.1,54.4,29.78,SSW,198,1.2,1.2,94,0.09,-RA,OVC,0.07,0.0,WeatherDisplay:10.37,2013-10-02 23:19:00,
2013-10-03 00:24:00,56.1,54.4,29.78,NW,304,1.2,1.2,94,0.11,-RA,OVC,0.10,0.0,WeatherDisplay:10.37,2013-10-02 23:24:00,
2013-10-03 00:29:00,56.1,54.4,29.78,SE,131,2.3,2.3,94,0.13,-RA,OVC,0.11,0.0,WeatherDisplay:10.37,2013-10-02 23:29:00,
2013-10-03 00:34:00,56.2,54.5,29.78,SW,228,0.0,0.0,94,0.13,-RA,OVC,0.13,0.0,WeatherDisplay:10.37,2013-10-02 23:34:00,
2013-10-03 00:39:00,56.2,54.5,29.78,WNW,301,1.2,1.2,94,0.16,-RA,OVC,0.15,0.0,WeatherDisplay:10.37,2013-10-02 23:39:00,
2013-10-03 00:44:00,56.2,54.5,29.77,WNW,294,1.2,1.2,94,0.18,-RA,OVC,0.17,0.0,WeatherDisplay:10.37,2013-10-02 23:44:00,
2013-10-03 00:49:00,56.2,54.5,29.76,West,274,1.2,1.2,94,0.20,-RA,OVC,0.20,0.0,WeatherDisplay:10.37,2013-10-02 23:49:00,
2013-10-03 00:50:00,56.1,54.4,29.76,ESE,123,1.2,1.2,94,0.20,-RA,OVC,0.20,0.0,WeatherDisplay:10.37,2013-10-02 23:50:00,
2013-10-03 00:55:00,56.2,54.8,29.76,NW,318,3.0,3.0,95,0.23,-RA,OVC,0.22,0.0,WeatherDisplay:10.37,2013-10-02 23:55:00,
2013-10-03 01:00:00,56.1,54.7,29.76,SE,134,3.5,3.5,95,0.22,-RA,OVC,0.22,0.0,WeatherDisplay:10.37,2013-10-03 00:00:00,
2013-10-03 01:05:00,56.1,54.7,29.76,WSW,238,3.5,3.5,95,0.22,-RA,OVC,0.23,0.0,WeatherDisplay:10.37,2013-10-03 00:05:00,
2013-10-03 01:10:00,56.1,54.7,29.76,East,98,3.5,3.5,95,0.21,-RA,OVC,0.24,0.0,WeatherDisplay:10.37,2013-10-03 00:10:00,
2013-10-03 01:15:00,56.1,54.7,29.76,WSW,252,2.3,2.3,95,0.20,-RA,OVC,0.25,0.0,WeatherDisplay:10.37,2013-10-03 00:15:00,
2013-10-03 01:20:00,56.1,54.7,29.76,SE,126,2.3,2.3,95,0.18,-RA,OVC,0.27,0.0,WeatherDisplay:10.37,2013-10-03 00:20:00,
2013-10-03 01:25:00,56.1,54.7,29.76,NW,314,1.2,1.2,95,0.17,-RA,OVC,0.28,0.0,WeatherDisplay:10.37,2013-10-03 00:25:00,
2013-10-03 01:30:00,56.1,54.7,29.76,East,86,0.0,0.0,95,0.16,-RA,OVC,0.28,0.0,WeatherDisplay:10.37,2013-10-03 00:30:00,
2013-10-03 01:35:00,56.2,54.8,29.76,SW,229,3.5,3.5,95,0.14,-RA,OVC,0.28,0.0,WeatherDisplay:10.37,2013-10-03 00:35:00,
2013-10-03 01:40:00,56.2,54.8,29.76,SE,126,2.3,2.3,95,0.13,-RA,OVC,0.29,0.0,WeatherDisplay:10.37,2013-10-03 00:40:00,
2013-10-03 01:45:00,56.2,54.8,29.76,SW,228,2.3,2.3,95,0.11,-RA,OVC,0.29,0.0,WeatherDisplay:10.37,2013-10-03 00:45:00,
2013-10-03 01:50:00,56.2,54.8,29.76,WSW,253,3.5,3.5,95,0.09,-RA,OVC,0.29,0.0,WeatherDisplay:10.37,2013-10-03 00:50:00,
2013-10-03 01:55:00,56.2,54.8,29.76,SE,124,5.0,5.0,95,0.07,-RA,OVC,0.29,0.0,WeatherDisplay:10.37,2013-10-03 00:55:00,
2013-10-03 02:01:00,56.2,54.8,29.76,SW,224,2.3,2.3,95,0.07,-RA,OVC,0.29,0.0,WeatherDisplay:10.37,2013-10-03 01:01:00,
2013-10-03 02:06:00,56.2,54.8,29.76,SE,127,3.5,3.5,95,0.06,-RA,OVC,0.29,0.0,WeatherDisplay:10.37,2013-10-03 01:06:00,
2013-10-03 02:11:00,56.2,54.8,29.76,WSW,254,3.5,3.5,95,0.06,-RA,OVC,0.30,0.0,WeatherDisplay:10.37,2013-10-03 01:11:00,
2013-10-03 02:16:00,56.2,54.8,29.76,WSW,248,3.5,3.5,95,0.05,-RA,OVC,0.30,0.0,WeatherDisplay:10.37,2013-10-03 01:16:00,
2013-10-03 02:21:00,56.3,54.9,29.75,WNW,284,3.5,3.5,95,0.04,-RA,OVC,0.30,0.0,WeatherDisplay:10.37,2013-10-03 01:21:00,
2013-10-03 02:26:00,56.3,54.9,29.75,NE,48,3.5,3.5,95,0.02,-RA,OVC,0.30,0.0,WeatherDisplay:10.37,2013-10-03 01:26:00,
2013-10-03 02:31:00,56.4,55.0,29.75,South,180,3.5,3.5,95,0.02,BKN,OVC,0.30,0.0,WeatherDisplay:10.37,2013-10-03 01:31:00,
2013-10-03 02:36:00,56.4,55.0,29.75,West,269,2.3,2.3,95,0.02,BKN,OVC,0.30,0.0,WeatherDisplay:10.37,2013-10-03 01:36:00,
2013-10-03 02:41:00,56.5,55.1,29.75,West,274,2.3,2.3,95,0.01,BKN,OVC,0.30,0.0,WeatherDisplay:10.37,2013-10-03 01:41:00,
2013-10-03 02:46:00,56.5,55.1,29.75,SW,218,3.5,3.5,95,0.01,BKN,OVC,0.30,0.0,WeatherDisplay:10.37,2013-10-03 01:46:00,
2013-10-03 02:51:00,56.5,55.1,29.75,WNW,288,3.5,3.5,95,0.01,BKN,OVC,0.30,0.0,WeatherDisplay:10.37,2013-10-03 01:51:00,
2013-10-03 02:56:00,56.5,54.8,29.75,West,272,2.3,2.3,94,0.01,BKN,OVC,0.30,0.0,WeatherDisplay:10.37,2013-10-03 01:56:00,
2013-10-03 03:01:00,56.6,54.9,29.74,SW,222,2.3,2.3,94,0.01,BKN,OVC,0.30,0.0,WeatherDisplay:10.37,2013-10-03 02:01:00,
2013-10-03 03:05:00,56.6,54.9,29.74,WSW,257,2.0,2.0,94,0.01,BKN,OVC,0.30,0.0,WeatherDisplay:10.37,2013-10-03 02:05:00,
2013-10-03 03:10:00,56.7,55.0,29.74,WNW,284,3.5,3.5,94,0.00,BKN,OVC,0.30,0.0,WeatherDisplay:10.37,2013-10-03 02:10:00,
2013-10-03 03:15:00,56.7,55.0,29.74,WNW,284,3.5,3.5,94,0.00,BKN,OVC,0.30,0.0,WeatherDisplay:10.37,2013-10-03 02:15:00,
2013-10-03 03:20:00,56.7,55.0,29.74,WSW,240,1.2,1.2,94,0.00,BKN,OVC,0.30,0.0,WeatherDisplay:10.37,2013-10-03 02:20:00,
2013-10-03 03:25:00,56.8,55.1,29.74,South,177,3.5,3.5,94,0.00,BKN,OVC,0.30,0.0,WeatherDisplay:10.37,2013-10-03 02:25:00,
2013-10-03 03:30:00,56.8,55.1,29.74,NW,304,2.3,2.3,94,0.00,BKN,OVC,0.30,0.0,WeatherDisplay:10.37,2013-10-03 02:30:00,
2013-10-03 03:35:00,56.8,55.1,29.73,West,280,3.5,3.5,94,0.00,SCT,OVC,0.30,0.0,WeatherDisplay:10.37,2013-10-03 02:35:00,
2013-10-03 03:40:00,56.8,55.1,29.73,West,273,2.3,2.3,94,0.00,SCT,OVC,0.30,0.0,WeatherDisplay:10.37,2013-10-03 02:40:00,
2013-10-03 03:45:00,56.8,55.1,29.74,SSE,156,2.3,2.3,94,0.00,SCT,OVC,0.30,0.0,WeatherDisplay:10.37,2013-10-03 02:45:00,
2013-10-03 03:50:00,56.8,55.1,29.73,West,281,3.5,3.5,94,0.00,SCT,OVC,0.30,0.0,WeatherDisplay:10.37,2013-10-03 02:50:00,
2013-10-03 03:55:00,56.9,55.2,29.73,NW,321,1.2,1.2,94,0.00,SCT,OVC,0.30,0.0,WeatherDisplay:10.37,2013-10-03 02:55:00,
2013-10-03 04:00:00,57.0,55.3,29.73,SSW,212,2.3,2.3,94,0.00,SCT,OVC,0.30,0.0,WeatherDisplay:10.37,2013-10-03 03:00:00,
2013-10-03 04:05:00,57.1,55.4,29.73,West,259,1.2,1.2,94,0.01,-RA,OVC,0.31,0.0,WeatherDisplay:10.37,2013-10-03 03:05:00,
2013-10-03 04:10:00,57.1,55.4,29.73,SW,232,3.5,3.5,94,0.01,-RA,OVC,0.31,0.0,WeatherDisplay:10.37,2013-10-03 03:10:00,
2013-10-03 04:15:00,57.2,55.5,29.73,WSW,239,1.2,1.2,94,0.01,-RA,OVC,0.31,0.0,WeatherDisplay:10.37,2013-10-03 03:15:00,
2013-10-03 04:20:00,57.2,55.5,29.73,NNW,337,1.2,1.2,94,0.01,-RA,OVC,0.31,0.0,WeatherDisplay:10.37,2013-10-03 03:20:00,
2013-10-03 04:25:00,57.3,55.6,29.74,SSE,165,1.2,1.2,94,0.02,-RA,OVC,0.31,0.0,WeatherDisplay:10.37,2013-10-03 03:25:00,
2013-10-03 04:30:00,57.3,55.6,29.73,West,277,2.3,2.3,94,0.02,-RA,OVC,0.31,0.0,WeatherDisplay:10.37,2013-10-03 03:30:00,
2013-10-03 04:35:00,57.3,55.6,29.73,WNW,288,2.3,2.3,94,0.02,BKN,OVC,0.31,0.0,WeatherDisplay:10.37,2013-10-03 03:35:00,
2013-10-03 04:40:00,57.3,55.6,29.73,SE,135,1.2,1.2,94,0.02,BKN,OVC,0.31,0.0,WeatherDisplay:10.37,2013-10-03 03:40:00,
2013-10-03 04:45:00,57.4,55.7,29.73,SE,141,1.2,1.2,94,0.02,BKN,OVC,0.31,0.0,WeatherDisplay:10.37,2013-10-03 03:45:00,
2013-10-03 04:50:00,57.4,55.7,29.73,West,275,1.2,1.2,94,0.02,BKN,OVC,0.31,0.0,WeatherDisplay:10.37,2013-10-03 03:50:00,
2013-10-03 04:55:00,57.6,55.9,29.73,SE,141,2.3,2.3,94,0.02,RA,OVC,0.32,0.0,WeatherDisplay:10.37,2013-10-03 03:55:00,
2013-10-03 05:00:00,57.6,55.9,29.73,WNW,283,2.3,2.3,94,0.03,RA,OVC,0.33,0.0,WeatherDisplay:10.37,2013-10-03 04:00:00,
2013-10-03 05:01:00,57.6,55.9,29.73,SE,139,2.3,2.3,94,0.03,RA,OVC,0.33,0.0,WeatherDisplay:10.37,2013-10-03 04:01:00,
2013-10-03 05:06:00,57.7,56.0,29.73,SE,136,2.3,2.3,94,0.03,RA,OVC,0.35,0.0,WeatherDisplay:10.37,2013-10-03 04:06:00,
2013-10-03 05:11:00,57.8,56.1,29.73,ESE,111,2.3,2.3,94,0.04,RA,OVC,0.35,0.0,WeatherDisplay:10.37,2013-10-03 04:11:00,
2013-10-03 05:16:00,57.8,56.1,29.73,West,277,1.0,1.0,94,0.05,RA,OVC,0.35,0.0,WeatherDisplay:10.37,2013-10-03 04:16:00,
2013-10-03 05:21:00,57.8,56.1,29.73,WNW,298,0.0,0.2,94,0.05,RA,OVC,0.35,0.0,WeatherDisplay:10.37,2013-10-03 04:21:00,
2013-10-03 05:26:00,57.8,56.1,29.72,SE,136,1.0,1.0,94,0.05,RA,OVC,0.36,0.0,WeatherDisplay:10.37,2013-10-03 04:26:00,
2013-10-03 05:31:00,57.8,56.1,29.72,WSW,246,1.2,0.0,94,0.06,RA,OVC,0.37,0.0,WeatherDisplay:10.37,2013-10-03 04:31:00,
2013-10-03 05:36:00,57.8,56.1,29.72,West,274,1.2,1.2,94,0.06,RA,OVC,0.37,0.0,WeatherDisplay:10.37,2013-10-03 04:36:00,
2013-10-03 05:42:00,57.8,56.1,29.72,WNW,286,1.2,1.2,94,0.06,FEW,OVC,0.37,0.0,WeatherDisplay:10.37,2013-10-03 04:42:00,
2013-10-03 05:46:00,57.7,56.0,29.72,WNW,283,1.2,1.2,94,0.06,FEW,OVC,0.37,0.0,WeatherDisplay:10.37,2013-10-03 04:46:00,
2013-10-03 05:52:00,57.7,56.0,29.72,SE,145,1.2,1.2,94,0.06,FEW,OVC,0.37,0.0,WeatherDisplay:10.37,2013-10-03 04:52:00,
2013-10-03 05:57:00,57.7,56.0,29.72,West,260,3.5,0.0,94,0.05,FEW,OVC,0.37,0.0,WeatherDisplay:10.37,2013-10-03 04:57:00,
2013-10-03 06:02:00,57.7,56.0,29.73,WSW,248,2.3,2.3,94,0.04,SCT,OVC,0.37,0.0,WeatherDisplay:10.37,2013-10-03 05:02:00,
2013-10-03 06:07:00,57.7,56.0,29.73,SE,126,2.3,2.3,94,0.03,SCT,OVC,0.37,0.0,WeatherDisplay:10.37,2013-10-03 05:07:00,
2013-10-03 06:12:00,57.6,55.9,29.72,SSE,150,2.3,2.3,94,0.02,SCT,OVC,0.37,0.0,WeatherDisplay:10.37,2013-10-03 05:12:00,
2013-10-03 06:17:00,57.6,55.9,29.72,SW,235,2.3,2.3,94,0.02,SCT,OVC,0.37,0.0,WeatherDisplay:10.37,2013-10-03 05:17:00,
2013-10-03 06:22:00,57.7,56.0,29.72,WSW,250,4.6,4.6,94,0.02,SCT,OVC,0.37,0.0,WeatherDisplay:10.37,2013-10-03 05:22:00,
2013-10-03 06:27:00,57.7,56.0,29.72,NW,319,2.3,2.3,94,0.02,RA,OVC,0.38,0.0,WeatherDisplay:10.37,2013-10-03 05:27:00,
2013-10-03 06:32:00,57.8,56.1,29.72,ESE,115,3.5,3.5,94,0.01,RA,OVC,0.38,0.0,WeatherDisplay:10.37,2013-10-03 05:32:00,
2013-10-03 06:37:00,57.8,56.1,29.72,West,280,1.2,1.2,94,0.01,FEW,OVC,0.38,0.0,WeatherDisplay:10.37,2013-10-03 05:37:00,
2013-10-03 06:42:00,57.8,56.1,29.72,NW,318,1.2,1.2,94,0.01,FEW,OVC,0.38,0.0,WeatherDisplay:10.37,2013-10-03 05:42:00,
2013-10-03 06:47:00,57.8,56.1,29.72,SW,217,1.2,1.2,94,0.01,FEW,OVC,0.38,0.0,WeatherDisplay:10.37,2013-10-03 05:47:00,
2013-10-03 06:52:00,57.9,56.2,29.72,West,260,1.2,1.2,94,0.01,FEW,OVC,0.38,0.0,WeatherDisplay:10.37,2013-10-03 05:52:00,
2013-10-03 06:57:00,57.9,56.2,29.72,West,269,3.5,3.5,94,0.01,FEW,OVC,0.38,0.0,WeatherDisplay:10.37,2013-10-03 05:57:00,
2013-10-03 07:02:00,58.0,56.3,29.72,WSW,248,1.2,1.2,94,0.02,RA,OVC,0.39,0.0,WeatherDisplay:10.37,2013-10-03 06:02:00,
2013-10-03 07:07:00,58.0,56.3,29.72,SSE,153,1.2,1.2,94,0.02,RA,OVC,0.39,0.0,WeatherDisplay:10.37,2013-10-03 06:07:00,
2013-10-03 07:12:00,58.0,56.3,29.72,South,191,2.3,2.3,94,0.02,FEW,OVC,0.39,0.0,WeatherDisplay:10.37,2013-10-03 06:12:00,
2013-10-03 07:17:00,58.1,56.4,29.72,WSW,250,1.2,1.2,94,0.02,FEW,OVC,0.39,0.0,WeatherDisplay:10.37,2013-10-03 06:17:00,
2013-10-03 07:22:00,58.2,56.5,29.72,NNE,32,3.5,3.5,94,0.02,FEW,OVC,0.39,0.0,WeatherDisplay:10.37,2013-10-03 06:22:00,
2013-10-03 07:27:00,58.2,56.5,29.72,WNW,285,1.2,1.2,94,0.01,FEW,OVC,0.39,0.0,WeatherDisplay:10.37,2013-10-03 06:27:00,
2013-10-03 07:32:00,58.3,56.6,29.72,SSE,156,1.0,1.0,94,0.01,FEW,OVC,0.39,0.0,WeatherDisplay:10.37,2013-10-03 06:32:00,
2013-10-03 07:37:00,58.4,56.7,29.72,SW,226,1.2,1.2,94,0.01,FEW,OVC,0.39,0.0,WeatherDisplay:10.37,2013-10-03 06:37:00,
2013-10-03 07:42:00,58.4,56.7,29.72,SW,221,2.3,2.3,94,0.01,FEW,OVC,0.39,0.0,WeatherDisplay:10.37,2013-10-03 06:42:00,
2013-10-03 07:47:00,58.5,56.8,29.72,SE,141,1.2,1.2,94,0.01,FEW,OVC,0.39,0.0,WeatherDisplay:10.37,2013-10-03 06:47:00,
2013-10-03 07:52:00,58.5,56.8,29.72,SSW,212,2.3,2.3,94,0.01,FEW,OVC,0.39,0.0,WeatherDisplay:10.37,2013-10-03 06:52:00,
2013-10-03 07:57:00,58.5,56.8,29.72,WNW,294,3.5,3.5,94,0.01,FEW,OVC,0.39,0.0,WeatherDisplay:10.37,2013-10-03 06:57:00,
2013-10-03 08:02:00,58.5,56.8,29.72,West,276,1.2,1.2,94,0.00,FEW,OVC,0.39,0.0,WeatherDisplay:10.37,2013-10-03 07:02:00,
2013-10-03 08:07:00,58.6,56.9,29.72,WSW,249,2.3,2.3,94,0.00,FEW,OVC,0.39,0.0,WeatherDisplay:10.37,2013-10-03 07:07:00,
2013-10-03 08:12:00,58.6,56.9,29.73,WSW,254,1.2,1.2,94,0.00,FEW,OVC,0.39,0.0,WeatherDisplay:10.37,2013-10-03 07:12:00,
2013-10-03 08:17:00,58.6,56.9,29.73,West,262,1.2,1.2,94,0.00,FEW,OVC,0.39,0.0,WeatherDisplay:10.37,2013-10-03 07:17:00,
2013-10-03 08:22:00,58.6,56.9,29.72,WSW,239,1.2,1.2,94,0.00,FEW,OVC,0.39,0.0,WeatherDisplay:10.37,2013-10-03 07:22:00,
2013-10-03 08:27:00,58.6,56.9,29.73,West,269,1.2,1.2,94,0.00,FEW,OVC,0.39,0.0,WeatherDisplay:10.37,2013-10-03 07:27:00,
2013-10-03 08:32:00,58.7,57.0,29.73,WSW,253,2.3,2.3,94,0.00,FEW,OVC,0.39,0.0,WeatherDisplay:10.37,2013-10-03 07:32:00,
2013-10-03 08:37:00,58.7,57.0,29.72,SSE,156,1.2,1.2,94,0.01,RA,OVC,0.39,0.0,WeatherDisplay:10.37,2013-10-03 07:37:00,
2013-10-03 08:42:00,58.8,57.1,29.72,WNW,283,1.2,0.0,94,0.01,RA,OVC,0.39,0.0,WeatherDisplay:10.37,2013-10-03 07:42:00,
2013-10-03 08:47:00,58.8,57.1,29.73,West,276,1.2,1.2,94,0.01,FEW,OVC,0.39,0.0,WeatherDisplay:10.37,2013-10-03 07:47:00,
2013-10-03 08:52:00,58.8,57.1,29.73,SW,225,0.0,0.0,94,0.01,FEW,OVC,0.39,0.0,WeatherDisplay:10.37,2013-10-03 07:52:00,
2013-10-03 08:57:00,58.9,57.2,29.72,SSE,148,2.0,2.0,94,0.01,FEW,OVC,0.39,0.0,WeatherDisplay:10.37,2013-10-03 07:57:00,
2013-10-03 09:02:00,59.0,57.3,29.73,WSW,255,2.3,2.3,94,0.01,SCT,OVC,0.39,0.0,WeatherDisplay:10.37,2013-10-03 08:02:00,
2013-10-03 09:07:00,59.0,57.3,29.73,NW,311,1.2,1.2,94,0.02,RA,OVC,0.40,0.0,WeatherDisplay:10.37,2013-10-03 08:07:00,
2013-10-03 09:12:00,59.0,57.3,29.73,SE,139,1.2,1.2,94,0.02,RA,OVC,0.40,0.0,WeatherDisplay:10.37,2013-10-03 08:12:00,
2013-10-03 09:17:00,59.1,57.4,29.73,WNW,288,1.2,1.2,94,0.02,SCT,OVC,0.40,0.0,WeatherDisplay:10.37,2013-10-03 08:17:00,
2013-10-03 09:22:00,59.1,57.4,29.73,West,266,1.2,0.0,94,0.02,SCT,OVC,0.40,0.0,WeatherDisplay:10.37,2013-10-03 08:22:00,
2013-10-03 09:27:00,59.1,57.4,29.73,WNW,283,1.0,1.0,94,0.02,SCT,OVC,0.40,0.0,WeatherDisplay:10.37,2013-10-03 08:27:00,
2013-10-03 09:32:00,59.2,57.5,29.73,WSW,247,2.3,2.3,94,0.02,-RA,OVC,0.41,0.0,WeatherDisplay:10.37,2013-10-03 08:32:00,
2013-10-03 09:37:00,59.2,57.5,29.73,SW,228,2.3,2.3,94,0.02,-RA,OVC,0.41,0.0,WeatherDisplay:10.37,2013-10-03 08:37:00,
2013-10-03 09:42:00,59.2,57.5,29.73,WNW,284,2.3,2.3,94,0.02,-RA,OVC,0.41,0.0,WeatherDisplay:10.37,2013-10-03 08:42:00,
2013-10-03 09:47:00,59.2,57.5,29.73,SE,129,1.2,1.2,94,0.02,-RA,OVC,0.41,0.0,WeatherDisplay:10.37,2013-10-03 08:47:00,
2013-10-03 09:52:00,59.3,57.6,29.73,South,190,1.2,1.2,94,0.02,-RA,OVC,0.41,0.0,WeatherDisplay:10.37,2013-10-03 08:52:00,
2013-10-03 09:57:00,59.3,57.6,29.73,NNW,332,1.2,1.2,94,0.02,-RA,OVC,0.41,0.0,WeatherDisplay:10.37,2013-10-03 08:57:00,
2013-10-03 10:02:00,59.3,57.6,29.73,WSW,256,0.0,0.0,94,0.02,SCT,OVC,0.41,0.0,WeatherDisplay:10.37,2013-10-03 09:02:00,
2013-10-03 10:07:00,59.4,57.7,29.73,South,183,1.2,0.0,94,0.01,SCT,OVC,0.41,0.0,WeatherDisplay:10.37,2013-10-03 09:07:00,
2013-10-03 10:12:00,59.5,57.8,29.73,WSW,253,1.2,1.2,94,0.01,SCT,OVC,0.41,0.0,WeatherDisplay:10.37,2013-10-03 09:12:00,
2013-10-03 10:17:00,59.5,57.8,29.73,SW,224,2.3,2.3,94,0.01,SCT,OVC,0.41,0.0,WeatherDisplay:10.37,2013-10-03 09:17:00,
2013-10-03 10:22:00,59.5,57.8,29.73,SE,145,2.3,2.3,94,0.01,SCT,OVC,0.41,0.0,WeatherDisplay:10.37,2013-10-03 09:22:00,
2013-10-03 10:27:00,59.6,57.6,29.73,West,264,1.2,1.2,93,0.01,SCT,OVC,0.41,0.0,WeatherDisplay:10.37,2013-10-03 09:27:00,
2013-10-03 10:32:00,59.6,57.6,29.73,West,260,1.2,0.0,93,0.00,SCT,OVC,0.41,0.0,WeatherDisplay:10.37,2013-10-03 09:32:00,
2013-10-03 10:37:00,59.6,57.6,29.73,WNW,288,1.2,1.2,93,0.00,SCT,OVC,0.41,0.0,WeatherDisplay:10.37,2013-10-03 09:37:00,
2013-10-03 10:42:00,59.7,58.0,29.73,WSW,252,1.2,1.2,94,0.00,SCT,OVC,0.41,0.0,WeatherDisplay:10.37,2013-10-03 09:42:00,
2013-10-03 10:47:00,59.7,58.0,29.73,SW,221,0.0,0.2,94,0.00,SCT,OVC,0.41,0.0,WeatherDisplay:10.37,2013-10-03 09:47:00,
2013-10-03 10:52:00,59.9,58.2,29.73,SE,136,1.2,1.2,94,0.00,SCT,OVC,0.41,0.0,WeatherDisplay:10.37,2013-10-03 09:52:00,
2013-10-03 10:57:00,60.0,58.3,29.73,WNW,283,1.2,1.2,94,0.00,SCT,OVC,0.41,0.0,WeatherDisplay:10.37,2013-10-03 09:57:00,
2013-10-03 11:02:00,60.2,58.5,29.73,WNW,300,1.2,1.2,94,0.00,SCT,OVC,0.41,0.0,WeatherDisplay:10.37,2013-10-03 10:02:00,
2013-10-03 11:07:00,60.3,58.3,29.73,WNW,297,1.2,1.2,93,0.00,SCT,OVC,0.41,0.0,WeatherDisplay:10.37,2013-10-03 10:07:00,
2013-10-03 11:12:00,60.4,58.4,29.73,SSE,147,0.0,0.2,93,0.00,SCT,OVC,0.41,0.0,WeatherDisplay:10.37,2013-10-03 10:12:00,
2013-10-03 11:17:00,60.5,58.5,29.73,SW,215,2.0,2.0,93,0.00,SCT,OVC,0.41,0.0,WeatherDisplay:10.37,2013-10-03 10:17:00,
2013-10-03 11:22:00,60.5,58.5,29.72,SE,145,0.0,0.3,93,0.00,SCT,OVC,0.41,0.0,WeatherDisplay:10.37,2013-10-03 10:22:00,
2013-10-03 11:27:00,60.7,58.7,29.72,SSW,212,2.3,2.3,93,0.00,SCT,OVC,0.41,0.0,WeatherDisplay:10.37,2013-10-03 10:27:00,
2013-10-03 11:32:00,60.8,58.8,29.72,SSW,200,1.2,1.2,93,0.00,FEW,OVC,0.41,0.0,WeatherDisplay:10.37,2013-10-03 10:32:00,
2013-10-03 11:37:00,60.9,58.9,29.72,WSW,256,1.2,1.2,93,0.00,FEW,OVC,0.41,0.0,WeatherDisplay:10.37,2013-10-03 10:37:00,
2013-10-03 11:42:00,61.1,59.1,29.72,SW,231,0.0,0.0,93,0.00,FEW,OVC,0.41,0.0,WeatherDisplay:10.37,2013-10-03 10:42:00,
2013-10-03 11:48:00,61.3,59.3,29.72,West,271,1.2,1.2,93,0.00,FEW,OVC,0.41,0.0,WeatherDisplay:10.37,2013-10-03 10:48:00,
2013-10-03 11:53:00,61.4,59.4,29.72,West,280,1.2,1.2,93,0.00,FEW,OVC,0.41,0.0,WeatherDisplay:10.37,2013-10-03 10:53:00,
2013-10-03 11:58:00,61.5,59.5,29.72,South,171,1.2,1.2,93,0.00,FEW,OVC,0.41,0.0,WeatherDisplay:10.37,2013-10-03 10:58:00,
2013-10-03 12:03:00,61.6,59.3,29.72,WSW,248,1.2,1.2,92,0.00,OVC,,0.41,0.0,WeatherDisplay:10.37,2013-10-03 11:03:00,
2013-10-03 12:08:00,61.6,59.3,29.71,SW,226,0.0,0.0,92,0.00,OVC,,0.41,0.0,WeatherDisplay:10.37,2013-10-03 11:08:00,
2013-10-03 12:13:00,61.8,59.5,29.71,West,263,1.2,1.2,92,0.00,OVC,,0.41,0.0,WeatherDisplay:10.37,2013-10-03 11:13:00,
2013-10-03 12:18:00,61.8,59.5,29.71,SSW,211,1.2,1.2,92,0.00,OVC,,0.41,0.0,WeatherDisplay:10.37,2013-10-03 11:18:00,
2013-10-03 12:23:00,61.9,59.5,29.71,WSW,246,1.2,0.0,92,0.00,OVC,,0.41,0.0,WeatherDisplay:10.37,2013-10-03 11:23:00,
2013-10-03 12:28:00,62.0,59.6,29.71,SE,128,1.0,1.0,92,0.00,OVC,,0.41,0.0,WeatherDisplay:10.37,2013-10-03 11:28:00,
2013-10-03 12:33:00,62.2,59.8,29.71,SE,131,0.0,0.0,92,0.00,SCT,OVC,0.41,0.0,WeatherDisplay:10.37,2013-10-03 11:33:00,
2013-10-03 12:38:00,62.4,60.0,29.71,SW,217,0.0,0.0,92,0.00,SCT,OVC,0.41,0.0,WeatherDisplay:10.37,2013-10-03 11:38:00,
2013-10-03 12:43:00,62.6,60.2,29.71,SW,235,1.2,0.0,92,0.00,SCT,OVC,0.41,0.0,WeatherDisplay:10.37,2013-10-03 11:43:00,
2013-10-03 12:48:00,62.7,60.3,29.70,NE,43,1.2,0.0,92,0.01,RA,OVC,0.42,0.0,WeatherDisplay:10.37,2013-10-03 11:48:00,
2013-10-03 12:53:00,62.9,60.5,29.70,SE,138,1.2,1.2,92,0.01,RA,OVC,0.42,0.0,WeatherDisplay:10.37,2013-10-03 11:53:00,
2013-10-03 12:58:00,63.1,60.7,29.70,West,262,1.2,1.2,92,0.01,SCT,OVC,0.42,0.0,WeatherDisplay:10.37,2013-10-03 11:58:00,
2013-10-03 13:03:00,63.3,60.9,29.70,West,269,1.2,1.2,92,0.01,SCT,OVC,0.42,0.0,WeatherDisplay:10.37,2013-10-03 12:03:00,
2013-10-03 13:08:00,63.3,60.6,29.70,SSW,193,0.0,0.0,91,0.01,SCT,OVC,0.42,0.0,WeatherDisplay:10.37,2013-10-03 12:08:00,
2013-10-03 13:13:00,63.3,60.6,29.70,WNW,299,1.2,1.2,91,0.01,SCT,OVC,0.42,0.0,WeatherDisplay:10.37,2013-10-03 12:13:00,
2013-10-03 13:18:00,63.3,60.6,29.70,SE,136,1.2,1.2,91,0.01,SCT,OVC,0.42,0.0,WeatherDisplay:10.37,2013-10-03 12:18:00,
2013-10-03 13:23:00,63.2,60.5,29.70,West,281,1.0,0.0,91,0.01,SCT,OVC,0.42,0.0,WeatherDisplay:10.37,2013-10-03 12:23:00,
2013-10-03 13:28:00,63.2,60.5,29.70,WSW,239,1.2,1.2,91,0.01,SCT,OVC,0.42,0.0,WeatherDisplay:10.37,2013-10-03 12:28:00,
2013-10-03 13:33:00,63.1,60.7,29.69,WSW,244,1.2,1.2,92,0.01,SCT,OVC,0.42,0.0,WeatherDisplay:10.37,2013-10-03 12:33:00,
2013-10-03 13:38:00,63.1,60.7,29.69,WSW,255,1.2,0.0,92,0.01,SCT,OVC,0.42,0.0,WeatherDisplay:10.37,2013-10-03 12:38:00,
2013-10-03 13:43:00,63.3,61.2,29.68,WNW,297,1.2,1.2,93,0.01,SCT,OVC,0.42,0.0,WeatherDisplay:10.37,2013-10-03 12:43:00,
2013-10-03 13:48:00,63.4,61.3,29.69,SSW,204,0.0,0.0,93,0.00,SCT,OVC,0.42,0.0,WeatherDisplay:10.37,2013-10-03 12:48:00,
2013-10-03 13:53:00,63.4,61.0,29.69,SSW,193,0.0,0.0,92,0.00,SCT,OVC,0.42,0.0,WeatherDisplay:10.37,2013-10-03 12:53:00,
2013-10-03 13:58:00,63.5,61.1,29.68,WSW,248,1.2,1.2,92,0.00,SCT,OVC,0.42,0.0,WeatherDisplay:10.37,2013-10-03 12:58:00,
2013-10-03 14:03:00,63.5,61.1,29.68,SSW,205,1.2,0.0,92,0.00,FEW,OVC,0.42,0.0,WeatherDisplay:10.37,2013-10-03 13:03:00,
2013-10-03 14:08:00,63.7,61.3,29.68,WSW,247,1.2,1.2,92,0.00,FEW,OVC,0.42,0.0,WeatherDisplay:10.37,2013-10-03 13:08:00,
2013-10-03 14:13:00,64.0,61.6,29.67,SSE,165,0.0,0.0,92,0.00,FEW,OVC,0.42,0.0,WeatherDisplay:10.37,2013-10-03 13:13:00,
2013-10-03 14:18:00,64.3,61.9,29.67,ESE,121,1.2,1.2,92,0.00,FEW,OVC,0.42,0.0,WeatherDisplay:10.37,2013-10-03 13:18:00,
2013-10-03 14:23:00,64.6,61.9,29.67,ESE,110,0.0,0.0,91,0.00,FEW,OVC,0.42,0.0,WeatherDisplay:10.37,2013-10-03 13:23:00,
2013-10-03 14:28:00,64.8,62.1,29.67,SE,141,1.2,0.0,91,0.00,FEW,OVC,0.42,0.0,WeatherDisplay:10.37,2013-10-03 13:28:00,
2013-10-03 14:33:00,64.8,61.8,29.67,ESE,117,1.2,1.2,90,0.00,FEW,OVC,0.42,0.0,WeatherDisplay:10.37,2013-10-03 13:33:00,
2013-10-03 14:39:00,64.7,61.7,29.67,SSW,198,1.2,1.2,90,0.00,FEW,OVC,0.42,0.0,WeatherDisplay:10.37,2013-10-03 13:39:00,
2013-10-03 14:44:00,64.6,61.6,29.67,West,263,1.2,1.2,90,0.00,FEW,OVC,0.42,0.0,WeatherDisplay:10.37,2013-10-03 13:44:00,
2013-10-03 14:49:00,64.5,61.5,29.67,SE,140,0.0,0.0,90,0.00,FEW,OVC,0.42,0.0,WeatherDisplay:10.37,2013-10-03 13:49:00,
2013-10-03 14:54:00,64.5,61.5,29.66,SE,139,2.3,2.3,90,0.00,FEW,OVC,0.42,0.0,WeatherDisplay:10.37,2013-10-03 13:54:00,
2013-10-03 14:59:00,64.4,61.4,29.66,SE,145,2.3,2.3,90,0.00,FEW,OVC,0.42,0.0,WeatherDisplay:10.37,2013-10-03 13:59:00,
2013-10-03 15:04:00,64.4,61.4,29.66,ESE,108,3.5,3.5,90,0.00,FEW,OVC,0.42,0.0,WeatherDisplay:10.37,2013-10-03 14:04:00,
2013-10-03 15:09:00,64.3,61.3,29.66,East,96,2.3,2.3,90,0.00,FEW,OVC,0.42,0.0,WeatherDisplay:10.37,2013-10-03 14:09:00,
2013-10-03 15:15:00,64.2,61.2,29.66,ESE,103,3.5,0.0,90,0.00,FEW,OVC,0.42,0.0,WeatherDisplay:10.37,2013-10-03 14:15:00,
2013-10-03 15:20:00,64.1,61.1,29.66,SW,235,2.3,2.3,90,0.00,FEW,OVC,0.42,0.0,WeatherDisplay:10.37,2013-10-03 14:20:00,
2013-10-03 15:25:00,63.9,60.9,29.66,West,272,1.2,1.2,90,0.00,FEW,OVC,0.42,0.0,WeatherDisplay:10.37,2013-10-03 14:25:00,
2013-10-03 15:30:00,63.9,60.9,29.66,NW,304,1.2,1.2,90,0.00,FEW,OVC,0.42,0.0,WeatherDisplay:10.37,2013-10-03 14:30:00,
2013-10-03 15:35:00,63.8,60.8,29.66,ESE,110,1.2,0.0,90,0.00,FEW,OVC,0.42,0.0,WeatherDisplay:10.37,2013-10-03 14:35:00,
2013-10-03 15:40:00,63.8,60.8,29.65,WSW,243,0.0,1.0,90,0.00,FEW,OVC,0.42,0.0,WeatherDisplay:10.37,2013-10-03 14:40:00,
2013-10-03 15:45:00,63.8,60.8,29.65,SE,136,0.0,0.2,90,0.00,FEW,OVC,0.42,0.0,WeatherDisplay:10.37,2013-10-03 14:45:00,
2013-10-03 15:50:00,63.9,60.9,29.65,WSW,256,0.0,0.1,90,0.00,FEW,OVC,0.42,0.0,WeatherDisplay:10.37,2013-10-03 14:50:00,
2013-10-03 15:55:00,63.9,60.9,29.65,NW,304,0.0,1.0,90,0.00,FEW,OVC,0.42,0.0,WeatherDisplay:10.37,2013-10-03 14:55:00,
2013-10-03 16:00:00,63.9,60.9,29.65,SE,135,1.2,1.2,90,0.00,FEW,OVC,0.42,0.0,WeatherDisplay:10.37,2013-10-03 15:00:00,
2013-10-03 16:05:00,63.9,60.9,29.65,ESE,112,1.0,2.0,90,0.00,RA,OVC,0.43,0.0,WeatherDisplay:10.37,2013-10-03 15:05:00,
2013-10-03 16:10:00,63.8,60.8,29.64,SE,130,1.0,3.0,90,0.00,RA,OVC,0.43,0.0,WeatherDisplay:10.37,2013-10-03 15:10:00,
2013-10-03 16:15:00,63.7,60.7,29.64,NNW,337,1.2,0.0,90,0.01,FEW,OVC,0.43,0.0,WeatherDisplay:10.37,2013-10-03 15:15:00,
2013-10-03 16:20:00,63.4,60.4,29.64,WSW,245,2.3,2.3,90,0.01,FEW,OVC,0.43,0.0,WeatherDisplay:10.37,2013-10-03 15:20:00,
2013-10-03 16:25:00,63.1,60.1,29.64,SSE,167,0.0,4.0,90,0.00,FEW,OVC,0.43,0.0,WeatherDisplay:10.37,2013-10-03 15:25:00,
2013-10-03 16:30:00,62.8,59.8,29.64,SE,126,1.2,1.2,90,0.01,FEW,OVC,0.43,0.0,WeatherDisplay:10.37,2013-10-03 15:30:00,
2013-10-03 16:35:00,62.7,60.0,29.64,SE,145,0.0,2.0,91,0.00,-RA,OVC,0.43,0.0,WeatherDisplay:10.37,2013-10-03 15:35:00,
2013-10-03 16:40:00,62.5,59.8,29.64,East,94,3.5,3.5,91,0.01,-RA,OVC,0.43,0.0,WeatherDisplay:10.37,2013-10-03 15:40:00,
2013-10-03 16:45:00,62.4,59.7,29.64,SE,138,1.0,3.0,91,0.00,-RA,OVC,0.43,0.0,WeatherDisplay:10.37,2013-10-03 15:45:00,
2013-10-03 16:50:00,62.2,59.5,29.64,SE,136,3.5,3.5,91,0.02,-RA,OVC,0.43,0.0,WeatherDisplay:10.37,2013-10-03 15:50:00,
2013-10-03 16:55:00,62.0,59.3,29.64,ESE,122,2.3,2.3,91,0.02,-RA,OVC,0.44,0.0,WeatherDisplay:10.37,2013-10-03 15:55:00,
2013-10-03 17:00:00,61.8,59.1,29.64,SE,141,1.2,1.2,91,0.03,-RA,OVC,0.45,0.0,WeatherDisplay:10.37,2013-10-03 16:00:00,
2013-10-03 17:05:00,61.6,58.9,29.64,SE,134,1.2,1.2,91,0.03,RA,OVC,0.46,0.0,WeatherDisplay:10.37,2013-10-03 16:05:00,
2013-10-03 17:10:00,61.3,59.0,29.64,WSW,256,2.3,2.3,92,0.04,RA,OVC,0.46,0.0,WeatherDisplay:10.37,2013-10-03 16:10:00,
2013-10-03 17:15:00,61.1,58.8,29.64,SW,222,0.0,2.0,92,0.00,RA,OVC,0.47,0.0,WeatherDisplay:10.37,2013-10-03 16:15:00,
2013-10-03 17:20:00,60.9,58.6,29.64,WNW,285,3.0,3.0,92,0.06,RA,OVC,0.48,0.0,WeatherDisplay:10.37,2013-10-03 16:20:00,
2013-10-03 17:25:00,60.8,58.5,29.64,SE,143,2.0,2.0,92,0.06,RA,OVC,0.49,0.0,WeatherDisplay:10.37,2013-10-03 16:25:00,
2013-10-03 17:30:00,60.6,58.3,29.64,SSW,204,0.0,3.0,92,0.01,RA,OVC,0.50,0.0,WeatherDisplay:10.37,2013-10-03 16:30:00,
2013-10-03 17:35:00,60.5,58.2,29.64,SE,138,2.3,2.3,92,0.09,RA,OVC,0.51,0.0,WeatherDisplay:10.37,2013-10-03 16:35:00,
2013-10-03 17:40:00,60.3,58.3,29.64,SSW,201,0.0,2.0,93,0.00,RA,OVC,0.52,0.0,WeatherDisplay:10.37,2013-10-03 16:40:00,
2013-10-03 17:45:00,60.2,58.2,29.64,South,174,0.0,3.0,93,0.00,RA,OVC,0.52,0.0,WeatherDisplay:10.37,2013-10-03 16:45:00,
2013-10-03 17:50:00,60.1,58.1,29.64,South,179,0.0,0.3,93,0.09,-RA,OVC,0.53,0.0,WeatherDisplay:10.37,2013-10-03 16:50:00,
2013-10-03 17:55:00,60.0,58.0,29.64,SW,223,0.0,2.0,93,0.00,-RA,OVC,0.54,0.0,WeatherDisplay:10.37,2013-10-03 16:55:00,
2013-10-03 18:00:00,59.9,57.9,29.63,North,9,1.2,1.2,93,0.09,-RA,OVC,0.54,0.0,WeatherDisplay:10.37,2013-10-03 17:00:00,
2013-10-03 18:05:00,59.8,57.8,29.63,ENE,57,2.3,2.3,93,0.09,RA,OVC,0.54,0.0,WeatherDisplay:10.37,2013-10-03 17:05:00,
2013-10-03 18:10:00,59.7,57.7,29.63,NW,305,0.0,2.0,93,0.00,RA,OVC,0.54,0.0,WeatherDisplay:10.37,2013-10-03 17:10:00,
2013-10-03 18:15:00,59.6,57.5,29.63,WSW,254,0.0,2.0,93,0.00,FEW,OVC,0.54,0.0,WeatherDisplay:10.37,2013-10-03 17:15:00,
2013-10-03 18:20:00,59.5,57.5,29.63,SE,145,2.3,2.3,93,0.07,RA,OVC,0.55,0.0,WeatherDisplay:10.37,2013-10-03 17:20:00,
2013-10-03 18:25:00,59.4,57.4,29.63,SW,234,0.0,3.0,93,0.00,RA,OVC,0.55,0.0,WeatherDisplay:10.37,2013-10-03 17:25:00,
2013-10-03 18:30:00,59.3,57.3,29.62,SW,232,0.0,2.0,93,0.00,FEW,OVC,0.55,0.0,WeatherDisplay:10.37,2013-10-03 17:30:00,
2013-10-03 18:35:00,59.2,57.2,29.62,WSW,253,2.0,2.0,93,0.04,-RA,OVC,0.55,0.0,WeatherDisplay:10.37,2013-10-03 17:35:00,
2013-10-03 18:40:00,59.1,57.1,29.62,SE,136,2.3,2.3,93,0.04,-RA,OVC,0.56,0.0,WeatherDisplay:10.37,2013-10-03 17:40:00,
2013-10-03 18:45:00,59.1,57.1,29.62,West,271,2.3,2.3,93,0.04,-RA,OVC,0.56,0.0,WeatherDisplay:10.37,2013-10-03 17:45:00,
2013-10-03 18:50:00,59.0,57.0,29.62,SW,221,1.2,1.2,93,0.03,-RA,OVC,0.56,0.0,WeatherDisplay:10.37,2013-10-03 17:50:00,
2013-10-03 18:55:00,59.0,57.0,29.62,ESE,121,2.3,2.3,93,0.02,-RA,OVC,0.57,0.0,WeatherDisplay:10.37,2013-10-03 17:55:00,
2013-10-03 19:00:00,58.9,56.9,29.62,SE,132,1.2,1.3,93,0.03,-RA,OVC,0.57,0.0,WeatherDisplay:10.37,2013-10-03 18:00:00,
2013-10-03 19:05:00,58.8,56.8,29.62,SE,143,2.3,2.3,93,0.02,-RA,OVC,0.57,0.0,WeatherDisplay:10.37,2013-10-03 18:05:00,
2013-10-03 19:10:00,58.8,57.1,29.61,SE,141,1.2,1.2,94,0.03,-RA,OVC,0.57,0.0,WeatherDisplay:10.37,2013-10-03 18:10:00,
2013-10-03 19:15:00,58.7,57.0,29.61,SE,129,1.2,1.2,94,0.03,-RA,OVC,0.57,0.0,WeatherDisplay:10.37,2013-10-03 18:15:00,
2013-10-03 19:20:00,58.7,57.0,29.61,SSW,201,1.2,1.2,94,0.02,-RA,OVC,0.57,0.0,WeatherDisplay:10.37,2013-10-03 18:20:00,
2013-10-03 19:25:00,58.6,56.9,29.61,SE,141,1.2,1.2,94,0.03,-RA,OVC,0.58,0.0,WeatherDisplay:10.37,2013-10-03 18:25:00,
2013-10-03 19:30:00,58.6,56.9,29.61,SSE,148,1.2,1.2,94,0.03,-RA,OVC,0.58,0.0,WeatherDisplay:10.37,2013-10-03 18:30:00,
2013-10-03 19:35:00,58.6,56.9,29.61,SSW,205,1.2,1.2,94,0.04,-RA,OVC,0.59,0.0,WeatherDisplay:10.37,2013-10-03 18:35:00,
2013-10-03 19:40:00,58.5,56.8,29.60,SSE,149,4.6,4.6,94,0.03,-RA,OVC,0.59,0.0,WeatherDisplay:10.37,2013-10-03 18:40:00,
2013-10-03 19:45:00,58.4,56.7,29.60,SW,219,2.3,2.3,94,0.04,-RA,OVC,0.60,0.0,WeatherDisplay:10.37,2013-10-03 18:45:00,
2013-10-03 19:50:00,58.3,56.6,29.60,WSW,245,3.5,3.5,94,0.04,-RA,OVC,0.61,0.0,WeatherDisplay:10.37,2013-10-03 18:50:00,
2013-10-03 19:55:00,58.3,56.6,29.60,SSW,204,3.5,3.5,94,0.04,-RA,OVC,0.61,0.0,WeatherDisplay:10.37,2013-10-03 18:55:00,
2013-10-03 20:00:00,58.1,56.4,29.60,NW,307,3.5,3.5,94,0.05,-RA,OVC,0.61,0.0,WeatherDisplay:10.37,2013-10-03 19:00:00,
2013-10-03 20:05:00,58.1,56.4,29.59,South,169,1.2,1.2,94,0.05,-RA,OVC,0.61,0.0,WeatherDisplay:10.37,2013-10-03 19:05:00,
2013-10-03 20:10:00,58.0,56.3,29.59,NW,311,3.5,3.5,94,0.05,-RA,OVC,0.62,0.0,WeatherDisplay:10.37,2013-10-03 19:10:00,
2013-10-03 20:15:00,58.0,56.3,29.59,SSW,194,3.5,3.5,94,0.06,-RA,OVC,0.63,0.0,WeatherDisplay:10.37,2013-10-03 19:15:00,
2013-10-03 20:20:00,57.9,56.2,29.59,WSW,250,2.3,2.3,94,0.06,-RA,OVC,0.63,0.0,WeatherDisplay:10.37,2013-10-03 19:20:00,
2013-10-03 20:25:00,57.8,56.1,29.59,WNW,290,3.5,3.5,94,0.06,-RA,OVC,0.64,0.0,WeatherDisplay:10.37,2013-10-03 19:25:00,
2013-10-03 20:30:00,57.7,56.0,29.59,WSW,245,1.2,1.2,94,0.06,-RA,OVC,0.65,0.0,WeatherDisplay:10.37,2013-10-03 19:30:00,
2013-10-03 20:35:00,57.6,55.9,29.59,West,267,1.2,1.2,94,0.06,-RA,OVC,0.66,0.0,WeatherDisplay:10.37,2013-10-03 19:35:00,
2013-10-03 20:40:00,57.5,55.8,29.58,SW,219,2.3,2.3,94,0.09,-RA,OVC,0.69,0.0,WeatherDisplay:10.37,2013-10-03 19:40:00,
2013-10-03 20:45:00,57.4,55.7,29.58,SSE,162,2.3,2.3,94,0.11,-RA,OVC,0.71,0.0,WeatherDisplay:10.37,2013-10-03 19:45:00,
2013-10-03 20:50:00,57.3,55.6,29.58,SE,125,3.5,3.5,94,0.13,-RA,OVC,0.73,0.0,WeatherDisplay:10.37,2013-10-03 19:50:00,
2013-10-03 20:55:00,57.2,55.5,29.58,West,281,3.5,3.5,94,0.13,-RA,OVC,0.74,0.0,WeatherDisplay:10.37,2013-10-03 19:55:00,
2013-10-03 21:00:00,57.2,55.5,29.58,WSW,252,1.2,1.2,94,0.13,-RA,OVC,0.75,0.0,WeatherDisplay:10.37,2013-10-03 20:00:00,
2013-10-03 21:05:00,57.1,55.4,29.58,West,259,2.3,2.3,94,0.14,-RA,OVC,0.76,0.0,WeatherDisplay:10.37,2013-10-03 20:05:00,
2013-10-03 21:10:00,57.0,55.3,29.58,SE,142,3.5,3.5,94,0.14,-RA,OVC,0.76,0.0,WeatherDisplay:10.37,2013-10-03 20:10:00,
2013-10-03 21:15:00,57.0,55.3,29.57,South,183,2.3,2.3,94,0.14,-RA,OVC,0.77,0.0,WeatherDisplay:10.37,2013-10-03 20:15:00,
2013-10-03 21:20:00,57.0,55.3,29.57,SSE,160,3.5,3.5,94,0.14,-RA,OVC,0.77,0.0,WeatherDisplay:10.37,2013-10-03 20:20:00,
2013-10-03 21:25:00,56.9,55.2,29.57,South,190,1.2,1.2,94,0.14,-RA,OVC,0.78,0.0,WeatherDisplay:10.37,2013-10-03 20:25:00,
2013-10-03 21:30:00,56.8,55.1,29.57,SSW,207,3.5,3.5,94,0.15,-RA,OVC,0.79,0.0,WeatherDisplay:10.37,2013-10-03 20:30:00,
2013-10-03 21:35:00,56.6,54.9,29.57,NW,308,4.6,4.6,94,0.13,-RA,OVC,0.79,0.0,WeatherDisplay:10.37,2013-10-03 20:35:00,
2013-10-03 21:40:00,56.5,54.8,29.57,ESE,120,3.5,3.5,94,0.12,-RA,OVC,0.80,0.0,WeatherDisplay:10.37,2013-10-03 20:40:00,
2013-10-03 21:45:00,56.4,54.7,29.57,SE,124,3.5,3.5,94,0.09,-RA,OVC,0.80,0.0,WeatherDisplay:10.37,2013-10-03 20:45:00,
2013-10-03 21:50:00,56.3,54.6,29.56,WSW,248,4.6,4.6,94,0.07,-RA,OVC,0.80,0.0,WeatherDisplay:10.37,2013-10-03 20:50:00,
2013-10-03 21:55:00,56.1,54.4,29.56,WSW,240,2.3,2.3,94,0.07,-RA,OVC,0.81,0.0,WeatherDisplay:10.37,2013-10-03 20:55:00,
2013-10-03 22:00:00,56.0,54.3,29.56,SW,219,3.5,3.5,94,0.06,-RA,OVC,0.81,0.0,WeatherDisplay:10.37,2013-10-03 21:00:00,
2013-10-03 22:05:00,55.9,54.2,29.56,ESE,123,3.5,3.5,94,0.06,-RA,OVC,0.81,0.0,WeatherDisplay:10.37,2013-10-03 21:05:00,
2013-10-03 22:10:00,55.8,54.1,29.56,SSE,149,3.0,3.0,94,0.05,-RA,OVC,0.81,0.0,WeatherDisplay:10.37,2013-10-03 21:10:00,
2013-10-03 22:15:00,55.8,54.1,29.55,ESE,122,3.5,3.5,94,0.05,-RA,OVC,0.82,0.0,WeatherDisplay:10.37,2013-10-03 21:15:00,
2013-10-03 22:20:00,55.7,54.0,29.55,West,263,3.5,3.5,94,0.05,-RA,OVC,0.82,0.0,WeatherDisplay:10.37,2013-10-03 21:20:00,
2013-10-03 22:25:00,55.7,54.0,29.55,NNW,347,1.2,1.2,94,0.04,-RA,OVC,0.82,0.0,WeatherDisplay:10.37,2013-10-03 21:25:00,
2013-10-03 22:30:00,55.6,53.9,29.55,SW,236,3.5,3.5,94,0.03,-RA,OVC,0.82,0.0,WeatherDisplay:10.37,2013-10-03 21:30:00,
2013-10-03 22:35:00,55.6,53.9,29.55,SSW,200,2.3,2.3,94,0.03,-RA,OVC,0.82,0.0,WeatherDisplay:10.37,2013-10-03 21:35:00,
2013-10-03 22:41:00,55.7,54.0,29.55,ESE,115,1.2,1.2,94,0.02,-RA,OVC,0.82,0.0,WeatherDisplay:10.37,2013-10-03 21:41:00,
2013-10-03 22:46:00,55.7,54.0,29.55,NW,314,2.3,2.3,94,0.02,-RA,OVC,0.82,0.0,WeatherDisplay:10.37,2013-10-03 21:46:00,
2013-10-03 22:51:00,55.7,54.0,29.55,North,356,2.3,2.3,94,0.02,-RA,OVC,0.82,0.0,WeatherDisplay:10.37,2013-10-03 21:51:00,
2013-10-03 22:56:00,55.6,53.9,29.55,ESE,102,1.2,1.2,94,0.01,-RA,OVC,0.82,0.0,WeatherDisplay:10.37,2013-10-03 21:56:00,
2013-10-03 23:01:00,55.6,53.9,29.55,SE,133,4.0,4.0,94,0.01,-RA,OVC,0.82,0.0,WeatherDisplay:10.37,2013-10-03 22:01:00,
2013-10-03 23:06:00,55.6,53.9,29.55,South,183,2.3,2.3,94,0.01,-RA,OVC,0.82,0.0,WeatherDisplay:10.37,2013-10-03 22:06:00,
2013-10-03 23:11:00,55.6,53.9,29.55,SW,224,1.2,1.2,94,0.01,-RA,OVC,0.82,0.0,WeatherDisplay:10.37,2013-10-03 22:11:00,
2013-10-03 23:16:00,55.6,53.9,29.55,West,280,2.0,2.0,94,0.01,-RA,OVC,0.83,0.0,WeatherDisplay:10.37,2013-10-03 22:16:00,
2013-10-03 23:21:00,55.6,53.9,29.54,West,277,1.2,1.2,94,0.01,-RA,OVC,0.83,0.0,WeatherDisplay:10.37,2013-10-03 22:21:00,
2013-10-03 23:26:00,55.7,54.0,29.54,WNW,284,2.3,2.3,94,0.01,-RA,OVC,0.83,0.0,WeatherDisplay:10.37,2013-10-03 22:26:00,
2013-10-03 23:31:00,55.7,54.0,29.54,ESE,121,0.0,0.0,94,0.01,-RA,OVC,0.83,0.0,WeatherDisplay:10.37,2013-10-03 22:31:00,
2013-10-03 23:36:00,55.7,54.0,29.54,NW,304,1.2,1.2,94,0.01,-RA,OVC,0.83,0.0,WeatherDisplay:10.37,2013-10-03 22:36:00,
2013-10-03 23:41:00,55.8,54.1,29.55,SE,131,0.0,0.0,94,0.02,-RA,OVC,0.83,0.0,WeatherDisplay:10.37,2013-10-03 22:41:00,
2013-10-03 23:46:00,55.8,54.1,29.55,WSW,253,0.0,0.0,94,0.02,-RA,OVC,0.84,0.0,WeatherDisplay:10.37,2013-10-03 22:46:00,
2013-10-03 23:51:00,55.8,54.1,29.55,WSW,240,0.0,0.0,94,0.03,-RA,OVC,0.85,0.0,WeatherDisplay:10.37,2013-10-03 22:51:00,
2013-10-03 23:56:00,55.8,54.1,29.54,SW,235,1.2,1.2,94,0.04,-RA,OVC,0.86,0.0,WeatherDisplay:10.37,2013-10-03 22:56:00,